CZ-3B R/B, 44867

Orbit data source: Space-Track

CZ-3B R/B, 44867 is space debris in HEO originally from a launch on Mon, 16 Dec 2019 UTC launched from the Xichang Space Center, China (XSC). Debris objects in space refer to the collection of defunct objects orbiting the Earth. Examples of debris include non-operational satellites, rocket bodies, and fragments generated from explosions, collisions, or faulty payload assembly.

Loading next visibility...
CZ-3B R/B details
Identifier
44867, 2019-090D
Orbit
HEO
Last TLE update22 hours ago
Origin
Flag of CNCASC (CN / PRC)
ManufacturerCALT
MissionSpacecraft
Bus & MotorCZ-3A STAGE 3, Unknown motor
Mass~2,800 kg wet, ~2,800 kg dry
Launch date (UTC)
2019-12-16 (5 years ago)
Launch vehicleUnknown
Launch site
Xichang Space Center, China (XSC)
Object type
Payload
Rocket body
Debris
Shape & HBRCyl + 1 Nozzle, 12.38 m
Radar Cross Section32.704 m², Large (>1 m²)

Expand to show TLE details & history

TLE from 22 hours ago
0 CZ-3B R/B
1 44867U 19090D   24360.60878091  .00299810 -22222-6  91716-3 0  9995
2 44867  54.9318 119.4221 5150671  70.7909 336.6276  5.55461587 86078
Epoch: 2024-12-25T14:36Z
Definitive object data (Epoch: 2024-12-25T14:36:38.67Z)
Latitude-0.0001°
Longitude165.65421°
Altitude2,079.543 km
Speed8.042 km/s
True Right ascension07h 57m 39s
True Declination0° 00' 00"
Sunlit
Object was in full shadow at TLE epoch
Visualization TLE readout
Latitude37.34847°
Longitude-47.26798°
Altitude1,550.293 km
Speed8.428 km/s
Apparent Right ascension20h 24m 07s
Apparent Declination5° 20' 49"
Sunlit
Object is in daylight
Visualization observer readout
Local Sidereal Time12:04:25
Azimuth61.825° ENE
Elevation-22.174°
Doppler factor1
Orbital elements
Apogee altitude14,026.575 km
Perigee altitude152.872 km
Semi-major axis13,467.861 km
Eccentricity0.5150671
Inclination54.9318°
RAAN119.4221°
Arg. of periapsis70.7909°
True anomaly289.21171°
Mean anomaly336.6276°
Eccentric anomaly316.20262°
Mean motion1.38866 °/min
BSTAR0.00091716
Orbital period259.24 mins
Loading maneuver chart data...
Loading historical data...
Loading historical data...
Loading historical data...
Loading historical data...
Loading historical data...
Loading historical data...
Loading historical data...
Other satellites on launch #90 in the year 2019 (2019-12-16 UTC)

CZ-3B R/B Visibility forecast

Observer location: undefined°, undefined

Span
Click to sort rows by Start time (UTC) header in descending order
Start Az.
Max El. time (UTC)
Max El. Az.
Max El.
End time (UTC)
End Az.
16 mins2024-12-26 16:54:51.853Z332.222° NNW2024-12-26 16:58:51.853Z56.73° ENE33.224°2024-12-26 17:10:51.853Z113.555° SE
26 mins2024-12-26 21:24:51.853Z257.964° W2024-12-26 21:31:51.853Z227.72° WSW17.908°2024-12-26 21:50:51.853Z195.828° SSW
4 mins2024-12-27 09:54:51.853Z190.112° SSW2024-12-27 09:56:51.853Z161.488° S20.922°2024-12-27 09:58:51.853Z96.732° ESE
|